This demonstration page uses our WeatherBlox Daily Observations layout. Learn more.

Left ArrowRight Arrow

41.86663, -103.66717

Hourly Observations for July 8, 2019

Temp ( °F °C ) Dew Point ( °F °C ) Humidity (%) Winds ( mph kmh ) Pressure ( in mb ) Visibility ( mi km ) Precip ( " mm )
12:53 am 00:53 Clear 68 20 N/A N/A SE 24 39 29.86 1011 10 16 N/A
1:53 am 01:53 Clear 66 19 N/A N/A SSE 7 11 29.81 1010 10 16 N/A
2:53 am 02:53 Clear 63 17 N/A N/A S 6 9 29.81 1010 10 16 N/A
3:53 am 03:53 Clear 61 16 N/A N/A ESE 6 9 29.79 1009 10 16 N/A
4:53 am 04:53 Clear 61 16 N/A N/A undefined N/A 29.80 1009 10 16 N/A
5:53 am 05:53 Sunny 61 16 N/A N/A E 7 11 29.80 1009 10 16 N/A
6:53 am 06:53 Sunny 66 19 N/A N/A E 3 6 29.80 1009 10 16 N/A
7:53 am 07:53 Sunny 70 21 N/A N/A ESE 7 11 29.80 1009 10 16 N/A
8:53 am 08:53 Sunny 72 22 N/A N/A SE 8 13 29.81 1009 10 16 N/A
9:53 am 09:53 Sunny 73 23 N/A N/A ESE 12 19 29.79 1009 10 16 N/A
10:53 am 10:53 Sunny 73 23 N/A N/A ESE 9 15 29.79 1009 10 16 N/A
11:53 am 11:53 Sunny 79 26 N/A N/A ESE 12 19 29.78 1008 10 16 N/A
12:53 pm 12:53 Sunny 82 28 N/A N/A VRB 6 9 29.76 1008 10 16 N/A
1:53 pm 13:53 Sunny 86 30 N/A N/A SSE 8 13 29.73 1007 10 16 N/A
2:53 pm 14:53 Mostly Sunny 84 29 N/A N/A VRB 3 6 29.73 1007 10 16 N/A
3:35 pm 15:35 Sunny with Nearby Thunderstorms 77 25 N/A N/A WNW 9 15 29.59 1002 10 16 N/A
3:51 pm 15:51 Windy with Storms Likely 70 21 N/A N/A W 28 44 29.70 1006 6 10 0.02 0.51
3:53 pm 15:53 Windy with Storms Likely 70 21 N/A N/A W 23 37 29.80 1009 5 8 0.02 0.51
4:05 pm 16:05 Cloudy with Thunderstorms 64 18 N/A N/A W 29 46 29.74 1007 2 3 0.08 2.03
4:20 pm 16:20 Cloudy with Thunderstorms 64 18 N/A N/A W 16 26 29.77 1008 5 8 N/A
4:53 pm 16:53 Cloudy with Thunderstorms 64 18 N/A N/A W 7 11 29.85 1011 10 16 0.18 4.57
5:04 pm 17:04 Cloudy with Light Rain 66 19 N/A N/A W 3 6 29.77 1008 4 6 0.02 0.51
5:53 pm 17:53 Sunny 70 21 N/A N/A N N/A 29.79 1009 10 16 0.05 1.27
6:53 pm 18:53 Sunny 73 23 N/A N/A N N/A 29.77 1008 10 16 N/A
7:53 pm 19:53 Sunny 70 21 N/A N/A S 3 6 29.76 1008 10 16 N/A
8:53 pm 20:53 Clear 66 19 N/A N/A SE 6 9 29.78 1008 10 16 N/A
9:53 pm 21:53 Clear 64 18 N/A N/A undefined N/A 29.80 1009 10 16 N/A
10:53 pm 22:53 Clear 63 17 N/A N/A N N/A 29.78 1009 10 16 N/A
11:53 pm 23:53 Clear 61 16 N/A N/A N 6 9 29.80 1009 10 16 N/A

Powered by AerisWeather